RH
72 74 74 82 88 80 73 67 53 46 43 41 38 37 35 34 34 39 42 47 34 10 37 99 99 100 82 89 58 64 71 56 42 34 27 22 20 29 40 44 69 88 62 89 84 77 51
81 83 89 92 90 83 76 73 70 63 55 48 42 36 29 29 29 30 38 38 37 30 37 99 97 99 98 91 67 53 75 54 45 36 40 20 25 56 76 58 67 57 63 53 52 33 30
97 92 90 88 90 85 92 90 94 82 69 60 48 38 29 20 17 15 22 34 34 24 21 84 100 99 99 98 74 83 72 55 40 52 41 20 48 62 73 52 60 63 47 30 28 44 61
98 98 98 98 96 87 97 99 99 99 92 71 48 33 24 19 16 12 10 19 31 27 29 31 99 97 98 93 82 74 62 48 44 63 46 25 50 83 82 60 57 65 74 66 45 70 72
91 99 98 98 98 98 98 98 98 98 94 69 40 38 33 32 23 15 9 41 27 18 67 86 78 96 99 86 78 76 65 48 63 64 28 36 55 92 92 98 92 99 83 71 60 66 91
97 98 96 96 97 98 97 97 97 97 93 76 62 55 75 58 47 26 41 98 99 86 82 99 98 99 86 83 77 61 47 64 74 61 40 65 92 83 85 100 98 74 86 84 78 58 89
99 93 97 97 97 92 93 97 96 94 96 84 88 78 74 58 64 47 25 98 98 86 56 98 94 78 91 77 64 54 61 79 83 73 72 66 68 38 72 82 86 95 98 91 76 62 94
96 97 97 83 60 67 100 98 96 95 92 88 85 67 66 65 68 67 31 86 97 97 88 86 98 99 92 66 62 55 69 81 93 100 100 98 70 70 84 93 100 100 96 84 75 72 99
99 97 68 39 40 84 94 93 90 88 82 82 77 78 69 74 71 67 53 94 96 97 97 96 98 98 95 93 77 68 85 100 99 100 97 90 75 93 100 95 99 97 86 77 97 94 84
98 100 45 23 41 70 75 82 80 78 78 76 80 75 74 66 67 59 36 90 96 97 96 99 98 98 89 86 86 100 99 99 100 99 100 99 97 92 96 97 98 96 99 100 97 100 98
100 83 18 20 71 78 70 84 86 87 86 83 77 79 88 81 56 41 24 44 95 97 96 99 100 98 92 85 97 94 97 96 98 100 98 97 91 99 98 96 99 95 100 95 99 99 99
71 24 18 26 43 79 87 89 85 84 85 85 84 83 85 60 35 29 52 34 93 96 97 98 96 99 84 100 98 86 95 95 94 92 94 87 91 95 82 81 86 86 80 84 98 100 99
21 17 19 27 39 56 75 91 90 97 95 81 68 49 58 33 27 36 69 58 86 96 98 97 98 92 83 91 98 91 98 94 96 99 98 100 99 99 97 95 91 88 89 98 97 99 98
12 16 23 30 39 48 81 89 89 87 93 76 49 38 48 24 59 51 60 88 96 98 95 94 85 87 96 90 88 97 99 99 99 97 97 97 99 98 97 94 97 94 95 98 96 97 98
11 16 28 43 57 68 64 88 94 88 47 40 20 23 24 43 66 68 80 94 98 97 93 90 98 98 94 98 99 99 98 98 100 96 96 99 98 96 89 90 94 97 98 99 98 99 97
10 15 26 44 59 49 28 24 20 20 14 16 11 30 57 66 78 86 89 98 99 96 97 97 97 92 86 97 97 97 98 98 93 94 98 97 98 89 85 89 87 77 84 95 90 96 97
12 11 22 39 46 50 24 17 13 13 12 21 36 51 66 65 77 73 87 95 88 83 86 93 95 93 88 94 97 97 99 89 84 91 100 98 88 76 71 79 76 73 70 78 74 73 88
12 13 16 30 41 41 29 17 14 17 27 31 36 50 65 66 69 76 81 79 74 78 77 79 85 78 86 88 87 82 82 77 73 91 96 87 89 82 76 72 67 66 62 61 61 61 67
10 12 16 24 31 38 38 21 18 16 25 32 35 46 58 61 98 85 86 80 83 81 61 59 70 69 72 76 83 78 70 68 67 65 77 76 73 82 74 68 48 56 53 51 58 66 74
11 11 13 22 29 30 34 36 38 32 32 37 34 45 55 62 81 93 83 84 94 72 65 66 76 73 80 79 80 66 65 67 62 62 58 55 70 73 79 73 71 62 56 51 55 73 78
28 16 12 14 19 33 41 35 30 33 37 43 43 48 58 68 77 80 79 82 85 87 82 76 76 65 71 77 77 66 69 66 60 59 54 55 63 67 71 70 70 66 61 56 54 56 56
8 35 29 15 19 23 34 40 29 36 37 40 47 54 57 67 76 74 79 75 78 93 90 86 80 78 62 61 78 70 63 49 53 53 48 58 70 64 63 61 57 50 59 67 68 64 68
6 10 32 31 27 23 23 28 39 37 43 47 52 62 62 64 70 77 74 74 96 97 92 88 82 63 55 54 52 53 40 31 30 38 41 45 48 61 53 60 61 48 57 64 68 69 69
11 6 9 28 39 46 38 27 32 42 39 48 53 59 58 51 66 73 76 64 78 89 90 83 80 57 60 48 51 60 54 45 36 29 30 36 38 38 52 67 72 55 58 62 62 69 69
35 7 6 8 24 38 49 34 27 42 43 42 46 57 51 39 64 76 70 70 76 79 76 80 70 60 60 53 65 77 72 58 43 38 34 33 35 43 56 58 49 48 50 53 51 51 54
52 9 6 6 11 30 49 44 31 36 44 50 51 58 38 38 59 78 75 60 63 79 78 68 64 62 58 60 69 71 67 49 55 50 46 42 41 47 50 59 55 52 43 46 46 45 40
54 18 7 6 8 24 41 50 47 42 47 52 54 39 33 33 53 58 64 59 59 66 71 73 71 60 58 69 66 72 72 59 61 55 47 40 53 65 72 69 61 57 46 47 52 50 37
53 33 8 5 6 14 29 45 49 54 53 54 44 28 27 30 45 47 49 57 67 64 66 68 69 65 64 69 75 77 62 65 54 58 58 46 58 66 73 68 64 48 49 48 50 44 39
56 42 10 7 5 7 14 39 51 54 57 57 51 30 26 27 31 42 48 56 62 70 67 66 73 73 69 73 76 75 72 67 60 56 55 52 45 66 59 61 58 48 37 44 47 41 38
Wind_Speed
36 34 33 35 36 36 35 33 30 27 26 24 22 20 20 21 23 25 24 24 26 26 31 30 25 20 23 18 19 21 17 15 12 12 13 13 12 13 16 14 12 23 25 27 27 29 30
38 35 37 39 39 38 36 36 36 34 33 30 29 28 23 21 22 22 24 25 24 26 32 27 22 20 26 19 20 18 13 13 11 10 11 12 11 12 16 16 18 21 25 28 30 32 33
39 39 40 41 41 41 41 43 42 38 34 30 29 27 26 22 22 21 22 26 26 26 31 36 30 21 18 16 16 12 14 12 12 10 11 12 13 14 12 13 15 20 24 26 25 23 30
42 44 46 51 52 50 53 42 34 31 32 31 27 26 26 24 22 21 20 23 25 25 27 36 24 26 22 9 15 14 11 13 11 11 12 13 15 14 14 10 15 21 23 25 10 12 9
44 46 49 56 65 50 59 35 30 31 27 24 23 24 25 24 23 19 20 16 23 20 28 30 34 22 10 15 19 16 13 11 9 9 12 13 13 10 9 11 16 13 17 21 24 13 16
43 47 49 50 51 54 46 33 24 24 19 11 17 23 21 21 19 19 15 14 11 10 30 28 21 9 14 6 12 11 9 7 8 8 8 9 9 12 11 15 12 8 16 22 27 21 22
49 53 53 54 46 47 42 36 19 18 13 14 19 21 18 18 17 17 17 9 19 13 33 19 16 19 8 9 12 8 8 7 7 7 7 5 12 12 4 8 14 19 24 29 31 23 27
54 58 54 54 54 47 38 28 25 19 16 16 17 17 15 13 15 17 13 13 2 10 21 20 27 15 13 10 7 8 7 7 6 5 4 6 12 3 7 9 16 18 25 30 31 15 18
58 57 64 48 41 37 31 27 20 17 17 17 16 13 10 9 13 11 12 8 8 8 14 10 18 18 13 8 7 8 4 4 6 7 7 11 5 5 8 12 17 20 20 23 27 23 22
65 53 62 48 40 32 31 25 22 20 19 18 16 13 10 8 8 7 6 10 7 19 11 10 12 14 10 8 7 5 4 5 7 6 8 11 1 11 11 18 14 18 14 17 20 20 6
60 59 49 39 31 28 27 27 25 23 21 17 14 13 15 10 4 4 3 1 5 15 4 12 11 11 9 10 4 7 5 8 6 3 5 5 10 8 11 13 12 19 17 22 19 18 22
51 48 42 35 36 32 30 28 27 25 22 18 15 11 12 12 9 6 7 7 8 2 5 7 9 14 20 13 7 7 7 4 2 7 11 13 14 16 14 11 16 18 20 22 19 14 5
46 43 39 35 36 35 32 30 27 27 23 18 12 8 14 12 12 9 11 10 4 5 8 13 14 16 19 13 7 6 4 2 2 4 6 7 7 9 8 4 3 6 13 5 2 3 1
37 36 36 35 35 36 35 30 25 25 23 25 16 9 12 19 19 15 14 11 11 22 20 16 21 22 10 10 5 4 1 5 7 8 8 5 2 2 5 4 6 6 13 4 4 2 2
32 35 33 32 33 35 35 32 33 31 24 29 27 21 21 23 19 17 13 16 9 17 19 20 13 11 13 7 4 7 6 3 4 3 2 4 5 5 4 5 7 6 11 12 5 5 1
29 33 29 29 29 34 36 36 40 40 37 32 32 29 32 29 25 20 21 24 25 22 18 10 5 8 8 5 3 4 3 12 9 8 6 8 2 7 10 8 8 9 11 3 6 4 3
30 30 28 24 25 25 30 33 33 32 29 26 26 31 28 22 21 21 26 27 21 17 16 13 12 14 7 9 11 9 4 6 4 5 6 9 7 6 9 9 16 15 15 4 7 5 1
27 30 30 22 21 22 21 24 25 25 22 19 19 24 19 17 17 21 24 19 18 17 15 18 17 16 11 7 9 5 6 5 6 8 8 7 3 3 7 9 12 19 19 10 4 7 7
24 25 26 21 18 18 18 16 18 17 15 13 14 16 14 12 17 18 18 18 17 16 14 13 13 15 10 8 6 6 8 12 10 4 2 2 1 1 3 3 13 23 17 10 4 4 15
25 21 23 22 18 15 13 12 13 14 12 10 6 5 8 10 11 12 15 16 16 16 20 20 17 14 14 11 9 7 9 12 11 8 6 5 9 7 6 5 10 14 21 15 19 25 26
25 22 19 22 21 19 15 10 7 5 7 7 6 6 7 10 12 13 14 16 17 19 18 17 11 10 9 7 11 11 8 8 11 11 7 9 11 12 10 9 9 12 22 20 20 16 20
23 21 19 17 18 20 18 13 7 7 6 5 5 5 6 8 11 17 17 14 15 15 15 14 13 7 4 9 10 5 6 7 7 9 6 7 6 10 11 9 10 11 16 20 23 20 21
25 20 18 15 15 17 18 16 10 7 7 7 6 7 8 6 8 14 13 12 10 10 13 10 8 5 5 7 6 9 7 8 6 5 6 7 4 4 4 2 2 5 9 10 14 16 15
27 23 20 17 17 16 18 17 14 11 8 7 5 6 11 4 5 9 13 12 9 5 9 7 5 5 7 7 9 10 7 8 8 6 5 5 4 4 3 1 3 1 5 6 7 8 8
25 25 24 19 16 18 19 13 15 13 11 8 9 8 11 6 8 12 11 10 12 8 7 5 4 5 6 3 4 4 4 4 5 7 2 2 4 4 3 5 3 2 3 4 3 5 6
25 25 23 24 16 16 17 9 10 13 10 9 6 7 9 4 8 17 13 12 12 12 11 7 5 4 3 1 3 3 3 5 2 4 6 3 1 1 3 2 3 3 4 6 5 6 7
24 23 22 21 18 13 17 12 7 6 5 7 10 9 6 5 5 12 12 10 8 13 11 8 6 4 5 2 2 1 2 4 3 4 4 4 1 3 4 3 4 6 5 8 6 5 6
23 22 20 19 20 14 13 13 8 7 4 3 9 12 5 5 7 6 4 9 10 11 12 9 8 7 6 6 3 3 5 5 6 7 7 4 2 2 4 5 4 4 8 8 6 7 6
22 20 19 15 16 18 12 8 8 6 4 5 5 7 5 4 2 6 8 7 10 11 9 10 9 6 6 5 7 5 7 7 7 6 7 6 7 4 6 4 5 4 6 7 7 5 4
Wind_Direction
331 327 326 327 328 329 331 333 330 327 325 323 317 312 306 300 291 282 276 274 273 253 224 245 239 254 253 254 264 272 277 267 269 269 266 273 270 259 257 263 257 253 274 271 271 268 267
335 331 330 331 329 328 325 322 320 319 320 320 317 314 312 305 298 292 279 267 245 254 220 232 251 224 242 251 266 269 262 261 266 264 266 267 268 250 255 260 253 270 271 271 267 270 271
335 331 329 329 325 324 319 316 312 309 309 312 313 312 310 308 302 295 280 271 259 237 242 227 251 222 235 245 265 271 269 260 270 258 258 259 254 249 254 265 256 264 276 277 277 289 279
336 332 330 325 323 322 321 315 303 303 304 309 312 313 309 305 303 292 280 273 259 246 225 224 243 260 233 243 266 267 254 260 252 266 260 265 251 248 250 261 265 275 277 285 319 315 327
332 329 326 325 316 310 312 298 295 290 295 306 316 316 304 301 296 283 267 263 257 233 213 222 235 233 249 245 263 258 244 237 251 256 251 245 244 247 250 264 278 272 272 294 298 298 310
331 328 323 322 321 309 307 290 285 286 305 330 315 299 320 308 300 271 233 178 160 201 197 200 228 257 252 213 222 224 203 235 262 270 254 233 228 242 246 227 241 286 292 299 297 303 303
336 333 329 327 327 331 322 283 294 2 332 325 298 306 310 300 293 288 240 215 154 191 201 223 238 248 203 210 191 190 208 234 253 245 239 256 246 259 329 282 292 289 296 294 292 288 287
340 339 340 340 328 333 307 298 324 346 331 311 325 319 314 294 288 298 264 233 158 149 195 211 198 177 186 162 186 191 214 249 237 221 208 228 266 278 267 274 282 281 291 293 300 299 294
343 341 353 352 351 342 337 21 13 354 343 333 334 332 327 303 286 309 338 222 66 120 154 185 165 177 189 198 188 181 211 209 190 211 226 243 264 299 288 290 280 285 283 293 291 309 308
348 332 345 355 359 5 5 7 3 356 352 348 345 334 320 298 310 1 356 261 13 140 127 126 172 166 189 164 179 175 191 179 213 224 226 258 285 266 255 274 284 297 294 291 305 292 269
350 342 351 360 9 9 13 8 5 3 360 3 10 16 14 357 18 45 30 6 104 127 110 147 152 176 169 144 165 170 193 199 194 194 222 262 284 284 261 268 274 274 282 284 296 284 298
353 355 359 4 8 8 8 5 3 358 350 347 349 6 26 31 85 91 89 79 106 91 79 117 144 159 154 133 166 143 163 152 184 260 258 270 271 278 276 270 268 287 290 288 280 268 253
3 3 1 3 6 7 6 0 2 354 344 332 324 338 48 70 89 114 105 117 107 43 107 118 132 142 144 137 156 166 135 200 254 281 292 303 285 300 284 312 321 282 287 289 288 192 310
8 7 6 7 12 12 11 13 13 8 7 35 65 96 78 76 77 96 100 55 48 78 92 111 128 128 130 132 132 146 251 256 283 262 263 308 1 352 96 47 352 275 273 295 302 356 323
9 9 10 15 22 26 27 28 28 24 31 56 80 101 92 94 93 104 59 47 53 76 101 126 116 106 129 90 146 200 241 260 35 125 23 10 36 93 77 43 4 327 340 325 265 287 51
11 8 11 17 25 41 44 46 54 63 67 79 96 99 97 95 82 62 69 67 98 103 105 79 60 107 123 162 188 196 77 32 54 66 31 8 1 65 59 31 38 13 4 343 323 341 39
13 3 4 17 26 41 53 56 66 72 83 93 105 105 100 92 72 76 80 93 90 89 92 79 85 112 115 75 67 65 69 67 27 44 340 355 84 65 59 56 36 22 359 333 284 214 121
17 5 357 9 24 34 56 65 72 84 85 98 111 99 96 89 79 77 69 114 103 99 107 97 91 108 84 83 61 73 67 55 26 112 72 84 13 0 67 54 35 25 12 13 21 353 78
6 10 359 359 14 31 43 68 81 85 95 96 89 85 68 58 65 64 65 116 95 92 97 104 96 84 79 78 96 86 78 54 57 122 96 135 38 294 321 16 41 41 29 20 56 80 32
358 7 4 355 359 8 27 47 67 88 96 89 82 77 60 59 62 72 92 113 100 99 97 95 84 78 69 77 77 87 76 56 59 72 71 75 73 66 109 69 47 47 48 47 97 91 89
354 349 357 353 347 353 1 8 19 48 73 56 49 54 53 64 70 75 122 115 105 101 100 101 94 97 93 88 75 84 67 61 56 62 76 83 82 81 82 76 69 68 68 74 76 89 101
351 347 354 358 350 346 351 2 356 1 11 27 11 0 44 80 83 111 126 122 120 112 110 112 112 102 121 118 93 82 51 39 50 51 77 83 91 77 65 85 69 73 82 86 89 87 93
349 340 338 345 350 344 338 339 342 333 355 15 26 34 37 111 118 133 128 128 107 115 131 129 116 116 126 118 115 81 48 44 36 40 61 78 77 104 62 97 71 47 65 77 92 115 118
349 341 331 323 331 335 328 323 322 317 305 327 349 344 354 32 126 137 162 153 144 132 141 135 123 123 112 102 86 69 51 51 34 35 27 39 63 75 94 8 35 80 87 122 144 126 134
346 340 339 325 316 329 335 325 316 321 309 299 310 337 344 2 127 142 144 147 152 142 161 150 139 139 119 115 72 37 14 9 38 46 10 353 31 58 59 57 123 180 159 157 176 172 155
342 339 338 342 317 327 346 346 330 324 323 311 299 332 353 7 139 157 170 174 162 165 175 185 194 191 168 113 69 13 1 340 334 5 28 31 109 117 132 145 219 175 202 199 199 222 210
334 335 337 339 336 322 346 351 345 329 339 344 336 345 4 58 135 168 180 183 200 185 188 199 212 210 215 208 167 214 291 305 286 306 328 349 26 183 171 199 215 225 211 198 198 198 186
324 329 332 337 346 325 335 357 350 331 309 9 8 353 21 92 135 165 177 188 198 200 198 198 208 230 233 233 250 246 267 276 271 271 296 278 268 207 205 216 217 186 199 209 220 196 193
313 319 324 330 333 344 321 343 340 314 304 310 5 23 1 24 123 179 179 196 206 214 219 210 212 205 223 235 240 251 254 265 269 277 265 275 235 234 228 229 217 247 236 226 224 230 229